GFSFLT2_500_rhum_072.txt.gz
RH
46 62 77 62 63 95 96 89 54 59 76 95 96 96 96 95 95 94 93 74 67 75 79 84 87 86 77 74 66 70 84 81
76 68 55 50 65 79 64 71 87 84 88 93 96 97 95 95 90 95 91 75 78 88 67 85 78 65 60 58 80 91 91 92
86 92 94 76 82 83 69 69 86 95 96 97 94 97 94 84 89 96 85 81 81 79 73 77 55 58 68 74 94 99 92 84
59 89 94 98 94 96 95 89 94 97 97 96 97 97 91 87 95 91 89 77 76 82 78 70 69 92 96 99 97 100 93 95
45 75 97 97 95 93 96 97 97 96 97 97 96 96 97 79 93 83 80 74 85 88 91 65 77 93 96 91 96 99 99 92
56 52 94 95 96 97 97 93 96 95 97 97 96 96 92 97 94 94 90 82 89 86 79 67 89 95 98 89 94 98 99 80
60 52 67 96 97 97 96 96 96 97 97 96 96 96 92 87 97 86 91 88 85 77 72 100 90 97 92 87 87 96 85 79
50 46 60 76 97 96 96 96 97 96 96 96 96 97 97 93 96 94 98 91 80 86 74 95 99 94 90 88 87 93 90 92
36 41 84 56 95 95 95 96 95 93 96 96 97 96 96 97 96 96 94 88 88 96 83 95 99 97 95 89 87 90 97 50
18 30 48 50 80 97 94 94 96 96 96 95 96 94 97 97 97 94 97 100 96 92 96 97 97 94 88 91 88 93 94 86
19 13 32 48 60 82 90 97 97 97 95 96 96 95 94 95 96 96 96 97 95 94 96 99 98 89 90 92 96 97 95 87
22 14 21 42 66 95 97 95 97 97 92 96 96 97 97 97 96 96 95 94 97 95 97 94 96 93 96 98 95 97 99 84
17 17 13 44 57 97 98 97 92 64 90 97 94 95 96 97 97 94 96 97 97 90 92 95 96 95 97 96 95 99 96 72
15 16 9 38 50 99 98 92 94 88 90 77 76 94 87 93 95 97 96 95 98 99 96 95 96 96 96 90 94 98 96 68
12 12 9 15 44 68 77 70 76 78 77 94 76 93 81 80 95 97 97 99 100 100 96 94 96 97 97 99 94 98 89 65
19 14 10 8 16 19 44 73 82 100 100 95 99 89 96 92 97 97 96 91 96 98 97 95 96 98 97 92 92 87 98 99
16 16 15 13 9 15 26 21 55 83 88 79 95 92 93 90 97 96 98 94 99 97 96 96 94 96 98 99 86 89 96 90
18 31 37 29 21 11 11 17 26 26 66 91 99 95 92 96 97 96 96 97 98 98 99 90 90 98 98 97 86 79 51 41
20 24 34 28 34 22 15 13 19 29 29 26 60 90 94 98 96 96 98 98 88 93 94 99 89 86 86 74 72 68 64 47
19 21 26 31 34 37 27 21 20 21 28 33 33 28 31 39 50 62 54 57 67 70 72 79 67 76 81 80 91 87 74 70

GFSFLT2_500_rhum_075.txt.gz
RH
61 78 51 51 78 91 92 96 94 61 62 47 47 66 54 78 97 94 89 92 93 71 67 59 73 66 65 70 64 65 66 62
55 74 90 62 63 92 94 96 96 86 69 53 52 65 77 87 98 92 93 94 90 73 72 64 85 84 82 76 74 62 69 75
54 64 82 77 70 69 89 92 97 96 84 57 81 96 93 90 96 95 96 94 84 79 82 70 96 87 59 50 56 54 87 92
45 48 78 95 94 93 71 74 90 98 93 92 97 97 95 93 96 95 94 91 80 84 74 78 99 66 56 83 89 86 90 89
41 49 54 79 85 74 76 76 94 83 92 97 97 97 95 96 95 95 92 78 79 82 72 82 90 64 73 91 84 81 84 89
36 43 44 90 85 76 52 59 92 95 96 96 95 97 96 96 96 94 92 79 84 78 85 82 92 70 70 85 94 84 80 85
36 37 39 80 82 89 85 66 85 97 99 97 96 96 96 97 96 94 90 86 88 86 86 88 90 71 81 96 88 79 74 81
33 36 36 57 74 85 78 76 86 92 96 97 95 97 96 97 96 96 95 95 95 84 85 88 70 71 96 93 88 77 76 81
20 26 32 83 81 92 96 95 92 89 97 96 95 97 96 96 95 97 97 97 96 90 87 92 76 76 94 95 89 84 82 81
23 17 20 33 49 69 92 95 95 95 96 97 96 96 96 95 96 97 96 98 97 95 96 96 92 81 99 91 80 84 84 84
21 20 14 25 31 52 82 96 96 96 96 97 97 96 96 93 93 95 98 97 96 92 91 98 98 95 97 92 84 82 86 85
18 18 15 20 31 46 79 86 94 97 97 96 96 96 95 95 90 93 97 97 96 90 99 95 88 91 93 89 85 84 88 88
18 17 16 16 32 55 79 91 91 96 88 96 96 96 96 90 86 90 97 97 93 97 93 90 89 88 92 90 89 96 95 96
16 16 17 16 28 43 99 90 90 94 67 83 92 92 94 96 96 98 94 94 93 94 93 87 89 95 95 96 98 96 96 96
15 15 14 12 15 46 94 95 91 78 78 72 92 93 79 92 88 82 95 94 96 95 92 89 95 93 96 99 96 96 96 98
15 15 16 12 7 17 22 56 69 70 69 67 82 88 79 83 82 82 84 95 96 98 93 92 100 97 95 96 95 96 98 99
14 12 13 16 11 8 13 24 17 52 66 91 90 94 78 86 86 92 89 98 97 92 96 96 100 96 97 96 97 98 96 98
15 14 14 14 13 13 10 9 14 18 34 66 84 92 84 98 100 99 98 94 96 95 87 96 97 97 98 95 99 100 98 100
17 16 19 24 20 25 21 14 10 14 21 23 28 55 88 98 98 96 97 100 97 96 95 99 96 90 97 97 91 89 97 97
20 18 18 23 28 28 32 30 23 19 20 26 29 27 32 46 82 96 96 96 95 90 96 88 85 80 80 92 86 80 94 93

GFSFLT2_500_rhum_078.txt.gz
RH
23 31 50 87 62 56 97 96 90 96 95 75 69 87 92 86 86 84 95 91 74 76 89 66 62 65 54 58 56 52 53 58
23 36 49 72 77 53 96 98 89 98 95 97 78 84 67 83 63 50 91 93 84 92 92 74 74 63 55 66 67 66 62 62
23 34 43 94 80 50 85 92 95 96 94 96 73 80 64 50 65 61 100 97 86 94 89 81 74 61 70 83 77 76 59 46
22 31 51 92 93 72 71 92 96 96 95 94 95 84 94 91 96 88 97 93 86 95 87 77 72 73 80 79 56 53 60 60
24 28 32 55 68 81 75 79 94 95 96 96 75 79 99 99 90 98 96 95 94 96 82 78 70 79 82 62 60 82 79 75
26 29 33 45 86 78 72 80 64 64 88 97 97 90 95 95 94 93 96 95 96 94 91 78 74 82 82 68 70 85 84 84
28 27 28 38 71 85 94 72 59 59 83 98 81 83 96 98 88 93 96 97 96 91 88 77 77 83 86 84 69 79 83 74
22 24 24 28 34 68 78 76 54 58 62 80 94 91 96 93 95 96 96 96 95 92 80 83 80 86 92 90 74 80 79 69
21 22 20 20 40 62 72 71 78 55 58 76 87 97 96 92 96 94 97 96 93 92 86 77 74 84 96 80 78 82 81 79
18 19 20 17 17 27 60 83 90 89 63 64 89 90 97 83 96 95 97 96 94 93 95 90 86 86 96 78 80 80 86 77
16 18 18 16 15 18 22 67 82 80 79 86 79 90 94 93 96 96 97 95 95 98 95 97 93 95 92 96 96 85 84 81
19 16 16 17 15 20 26 72 80 83 81 89 85 85 96 96 97 94 99 97 97 95 94 96 95 97 98 98 96 92 87 84
21 15 13 14 16 22 44 56 72 85 87 83 91 98 96 97 95 97 94 97 96 99 97 98 96 97 97 92 89 89 91 92
21 14 13 13 16 17 36 78 76 81 85 75 68 84 93 89 91 96 96 96 96 96 95 97 96 97 95 90 94 96 97 95
21 14 12 14 15 15 26 72 100 90 95 88 75 63 73 91 96 94 96 95 94 94 96 96 97 94 91 93 94 97 92 88
20 12 11 12 16 11 20 22 31 53 73 83 71 66 67 72 82 92 82 84 90 97 97 96 95 90 89 96 95 97 95 88
17 12 11 11 13 14 10 8 15 17 24 53 50 47 60 72 89 89 90 94 96 96 96 96 96 94 96 94 92 97 93 94
16 14 12 13 14 12 13 12 10 9 15 26 61 72 74 83 96 99 95 93 94 96 96 94 96 95 94 96 99 100 98 92
16 18 14 15 18 18 19 17 16 11 10 15 23 31 34 64 90 96 82 100 97 94 98 98 95 94 98 97 96 99 100 100
18 19 16 16 18 22 25 27 23 22 23 20 21 26 28 32 55 70 86 90 98 98 100 98 99 96 95 99 98 97 100 100

GFSFLT2_500_rhum_084.txt.gz
RH
22 19 15 18 22 34 48 66 76 71 56 62 95 97 95 97 87 96 93 97 93 92 86 83 88 91 82 77 73 59 57 59
20 16 16 19 27 40 64 75 70 86 55 61 79 95 97 96 90 70 58 77 94 95 87 89 84 93 86 68 83 72 65 64
18 19 22 25 46 66 73 96 95 97 65 72 78 96 97 96 91 93 80 75 80 84 92 75 88 86 68 70 84 75 67 68
20 28 30 29 34 43 68 97 93 72 80 81 68 93 96 96 77 94 96 77 77 87 84 74 87 84 95 90 90 82 72 76
21 25 29 30 34 41 73 95 87 87 94 98 82 94 95 97 84 81 96 97 83 66 58 73 89 92 94 94 87 88 79 87
17 22 23 23 25 58 78 95 96 97 96 97 97 95 96 94 65 66 66 73 67 56 64 71 77 86 95 93 90 81 80 80
18 19 19 21 18 26 59 84 90 96 97 96 97 96 96 68 58 54 59 59 65 64 67 77 75 98 96 93 87 80 85 83
21 17 16 18 18 16 16 28 81 95 87 97 96 96 92 62 58 82 71 92 98 96 100 93 89 100 98 95 83 82 88 95
25 20 17 17 16 16 16 28 83 84 92 96 96 97 95 64 86 90 92 98 92 94 90 99 91 99 98 94 79 78 83 97
22 23 19 16 16 14 15 24 63 80 78 92 96 97 99 92 80 80 79 88 90 86 85 93 97 93 99 95 80 74 80 89
22 26 19 17 14 14 14 26 39 84 90 82 88 90 86 97 86 83 84 77 85 92 86 85 89 91 96 96 90 84 85 87
20 28 23 18 13 13 15 25 57 80 88 86 83 80 86 99 91 96 97 92 93 87 96 88 91 91 97 93 92 92 94 92
13 28 24 17 12 13 14 22 79 76 80 87 80 77 96 96 98 97 99 98 99 94 92 88 90 100 98 96 96 95 96 97
12 18 23 16 10 12 13 32 70 81 75 75 92 95 93 97 98 99 100 96 98 95 93 94 95 97 99 96 97 96 97 98
12 21 24 13 11 11 13 28 70 84 91 93 79 81 88 92 95 96 94 96 96 97 86 95 97 97 96 98 96 98 97 97
13 23 23 12 10 11 14 14 22 44 60 89 90 84 72 74 72 78 88 86 92 86 92 98 98 100 96 98 96 99 97 98
14 19 20 12 11 11 12 12 8 13 17 20 30 46 64 81 82 73 91 100 94 96 91 90 99 97 97 96 96 97 96 99
13 20 16 13 12 11 12 12 14 13 10 9 11 16 33 56 86 93 100 92 93 100 96 96 99 93 96 96 96 96 97 96
13 22 14 15 14 13 16 19 18 15 12 10 9 12 30 52 72 78 95 96 97 97 100 100 98 97 96 97 94 92 97 92
21 24 15 17 14 14 16 22 25 25 22 20 19 15 18 27 30 37 76 93 100 100 99 100 98 96 92 94 97 93 90 94

GFSFLT2_500_rhum_087.txt.gz
RH
17 19 18 17 16 18 23 36 61 80 91 99 98 95 91 97 96 96 94 96 79 92 99 96 87 46 81 77 63 65 47 62
16 20 15 15 17 18 21 44 53 74 76 67 70 58 63 96 96 96 95 99 78 68 97 97 87 86 79 82 89 63 67 87
20 15 19 20 22 25 44 51 58 88 92 83 67 58 63 95 96 96 96 80 65 83 95 97 94 75 81 84 92 67 70 91
18 18 19 25 28 31 34 46 60 95 97 85 70 71 72 95 96 97 97 83 65 78 84 97 95 74 90 89 72 56 85 88
18 17 19 21 23 25 31 52 92 98 96 95 84 91 88 96 97 97 97 64 45 36 77 97 95 98 76 75 65 79 88 94
19 17 16 18 21 21 18 53 75 91 97 96 93 82 84 97 94 97 96 76 72 68 80 94 97 91 82 86 98 96 96 94
22 22 18 13 14 21 18 14 16 56 95 98 98 80 95 96 97 95 68 66 75 82 78 82 100 95 96 99 98 96 96 92
12 29 22 14 15 17 18 16 18 86 96 97 98 97 100 97 95 99 64 60 79 69 71 74 96 95 92 95 93 98 93 89
10 24 21 18 17 16 16 15 23 77 96 96 95 97 97 96 80 66 61 65 63 59 70 78 96 94 94 100 95 98 92 87
10 22 23 23 16 16 14 15 23 54 95 97 96 97 96 95 47 58 82 59 71 75 92 99 97 98 98 98 99 99 94 79
10 17 26 27 20 16 13 14 24 41 88 96 97 97 97 96 69 88 87 94 95 99 85 99 97 96 99 98 95 96 96 90
9 17 28 28 24 15 11 14 24 43 81 89 95 97 97 96 90 93 88 95 98 99 96 97 96 86 94 100 98 97 96 91
8 13 22 18 20 14 10 13 26 88 80 84 87 97 96 97 97 96 97 94 95 96 95 93 90 93 79 95 94 100 96 91
8 11 19 16 21 11 10 11 40 78 82 80 94 97 97 96 96 97 97 95 98 98 98 94 95 96 89 95 96 94 97 96
8 10 17 21 20 11 10 13 34 74 77 71 80 87 90 97 97 97 96 98 96 97 100 97 96 96 96 94 94 97 98 96
10 11 18 23 18 11 10 12 19 60 85 92 80 82 86 96 96 97 96 97 98 99 98 100 98 96 97 97 96 97 96 97
12 13 18 22 16 12 11 13 10 17 26 58 85 80 78 76 77 90 93 98 99 96 98 97 95 95 96 97 96 97 97 97
13 13 19 25 14 13 12 12 13 12 11 15 16 18 35 56 78 80 84 93 95 99 96 92 87 87 91 99 98 97 98 96
14 12 21 22 14 15 12 13 13 14 13 12 9 10 16 32 54 72 94 85 85 85 90 83 93 98 95 97 98 95 98 97
17 14 19 23 14 16 12 14 18 20 18 15 14 12 10 21 32 51 71 70 73 75 94 93 87 88 96 93 97 97 96 96